Terug naar catalogus

SL-14 DEB

ActiefPO
NORAD 45279·DEBRIS·🇷🇺 Russia

Gelanceerd Aug 15, 1991 vanaf Plesetsk Cosmodrome

Loading…

Volgende Passages (komende 24 uur)

TLE

VersSource: Space-Track

Epoch: Sep 14, 2026, 01:59 UTC

1 45279U 91056R   26257.08266496  .00000753  00000-0  23596-2 0  9993
2 45279  82.5543 122.1364 0078486 177.4486 182.7044 13.02003790312204

Volg SL-14 DEB in realtime met AllMySat

Download on the App Store